Regional Weather Roundup
Issued by NWS Charleston, SC

Current Version | Previous Version | Graphics & Text | Print | Product List | Glossary On
Versions: 1 2 3 4 5 6 7 8 9 10 11 12 13 14 15 16 17 18 19 20 21 22 23 24 25 26 27 28 29 30 31 32 33 34 35 36 37 38 39 40 41 42 43 44 45 46 47 48 49 50
717
ASUS42 KCHS 181312
RWRCHS

Regional Weather Roundup
National Weather Service Charleston SC
800 AM EST THU JAN 18 2018

NOTE: "fair" indicates few or no clouds below 12,000 feet with no
significant weather and/or obstructions to visibility.

Not all stations are quality controlled. Use data with caution,
especially dewpoint observations.

SCZ027-030-031-034>040-042>050-181400-
...Southeast South Carolina...

CITY           SKY/WX    TMP DP  RH WIND       PRES   REMARKS
N Charleston   FAIR      26  12  55 NW12      30.40R WCI  16
Waterfront Prk NOT AVBL
Mount Pleasant FAIR      27  16  63 NW12      30.39R WCI  16
Johns Island   FAIR      27  12  54 NW10      30.39R WCI  17
Pinopolis        N/A     27  16  63 NW13      30.30R WCI  16
Moncks Corner  FAIR      23  10  58 NW3       30.40R HAZE
Summerville    FAIR      25  12  58 NW5       30.42R WCI  19
Beaufort MCAS  FAIR      26  14  60 NW10      30.42R WCI  16
Beaufort Arpt  FAIR      27  14  59 NW13G22   30.41R WCI  16
Hilton Head Is CLEAR     27   9  46 NW9       30.41R WCI  17
Walterboro     FAIR      23  14  68 NW6       30.43R WCI  16
Allendale      FAIR      21  14  73 CALM      30.42R

...Southern Midlands and Pee Dee...

CITY           SKY/WX    TMP DP  RH WIND       PRES   REMARKS
Georgetown     FAIR      23  10  58 NW9G17    30.38R WCI  13
Kingstree      FAIR      21  12  68 W6        30.39R WCI  14
Orangeburg     FAIR      20  11  68 W8        30.41R WCI  10
Barnwell         N/A     21  12  68 CALM      30.42R
Aiken          FAIR      18  12  79 W6        30.42R WCI   9
Manning        FAIR      23  12  63 MISG      30.40R
Columbia       FAIR      21  13  71 W7        30.40R WCI  12
Sumter         FAIR      19  12  73 W7        30.36R WCI  10
Florence       FAIR      20   9  62 NW8       30.37R WCI  10
Myrtle Beach   NOT AVBL
N Myrtle Beach FAIR      23  15  71 NW10G16   30.32R WCI  12

$$

GAZ063-065-086>088-099>101-113>116-118-119-134>141-150-181400-
...Southeast Georgia...

CITY           SKY/WX    TMP DP  RH WIND       PRES   REMARKS
Savannah Arpt  FAIR      24  12  60 NW8       30.43R WCI  15
Hunter AAF     FAIR      24  11  58 NW8       30.40R WCI  15
Fort Stewart   FAIR      23  11  60 NW7       30.41R WCI  15
Statesboro     FAIR      22  11  62 NW6       30.43R WCI  15
Sylvania       FAIR      23  15  71 NW8       30.43R WCI  13
Claxton        FAIR      23  14  70 W3        30.44S

...CSRA, Central and far Southeast Georgia...

CITY           SKY/WX    TMP DP  RH WIND       PRES   REMARKS
Thomson        FAIR      18   9  68 N6        30.47R WCI  10
Augusta-Bush   FAIR      21  11  65 NW3       30.43R
Augusta-Daniel FAIR      22  10  60 W6        30.41R WCI  14
Swainsboro     FAIR      21  14  73 NW6       30.43S WCI  14
Vidalia        FAIR      23  16  74 N7        30.43S WCI  15
Eastman        FAIR      20   8  58 CALM      30.47R
Hazlehurst     FAIR      22  10  60 N5        30.42F WCI  16
Alma           FAIR      22  12  65 N6        30.42F WCI  14
Waycross       FAIR      23  10  57 N6        30.43R WCI  16
Jesup          NOT AVBL
Baxley         FAIR      21  10  63 N6        30.42S WCI  14
Brunswick      FAIR      27  14  59 NW6       30.42R WCI  20
Saint Simons   FAIR      25  14  63 NW9       30.40R WCI  15

$$

SCZ027-028-034-036>038-045-046-048>050-GAZ119-141-181400-
...Lake and Supplemental Coastal Observations...

STATION/POSITION TIME  TEMP    WIND        PRES    WAVE   SWELL
                       AIR SEA DIR/SP/G            HT/PER HT/PER/DIR
                 (UTC) (F)     (DEG/KT/KT) (MB)    (FT/S) (FT/S/D)
Winyah Bay       1145   24     310/  7     1027.0
Lake Murray      1220   20     290/  6/  9 1027.8R
ACE Basin NERRS  1145   25     310/  3     1029.0
Fort Pulaski     1242   26 45  320/ 10/ 12 1030.1R
Sapelo Island    1200   26     340/ 11     1029.0

$$

ANZ835-935-AMZ111-154-330-350-352-354-370-450-454-472-181400-
...C-MAN and Buoy Observations...

STATION/POSITION TIME  TEMP    WIND        PRES    WAVE   SWELL
                       AIR SEA DIR/SP/G            HT/PER HT/PER/DIR
                 (UTC) (F)     (DEG/KT/KT) (MB)    (FT/S) (FT/S/D)
Buoy 41004       1250   34 67  320/ 21/ 29 1026.7R   7/ 6   2/130/11
Buoy 41008       1250   32 50  340/ 21/ 27 1028.0R   4/ 5   2/100/11
Folly Beach CMAN 1200   27     310/  9/ 16 1028.4R
Capers Nearshore 1208   26 48  320/ 17/ 25 1027.3R
Fripp Nearshore  1208   26 47  330/ 17/ 23 1028.1R


STATION/POSITION TIME  TEMP    WIND        PRES    WAVE   SWELL
                       AIR SEA DIR/SP/G            HT/PER HT/PER/DIR
                 (UTC) (F)     (DEG/KT/KT) (MB)    (FT/S) (FT/S/D)
5E St. Marys GA  1230      49                N/A     4/12   2/100/12
Frying Pan Buoy  1250   32 65  320/ 21/ 27 1024.8R   7/ 6   2/110/11
Buoy 41025       1250   30 56  320/ 27/ 33 1020.3R  10/ 8
Cape Lookout NC  1200          330/ 18/ 23 1022.5R
Buoy 41002       1250   53 70  300/ 31/ 39 1017.1R  14/10  11/290/10
Buoy 41010       NOT AVBL
St Augustine FL  1300   28 48  320/  9/ 12 1029.6R


$$




USA.gov is the U.S. government's official web portal to all federal, state and local government web resources and services.